Time,TemperatureF,DewpointF,PressureIn,WindDirection,WindDirectionDegrees,WindSpeedMPH,WindSpeedGustMPH,Humidity,HourlyPrecipIn,Conditions,Clouds,dailyrainin,SoftwareType,DateUTC
2013-07-02 00:00:00,74.0,50.6,29.57,SSE,157,32.0,37.0,44,0.14,,,0.00,Weather View 32 v70,2013-07-02 04:00:00,
2013-07-02 00:05:00,75.0,49.6,29.59,WSW,247,14.0,37.0,41,0.15,,,0.01,Weather View 32 v70,2013-07-02 04:05:00,
2013-07-02 00:10:00,75.0,49.0,29.59,WSW,247,16.0,37.0,40,0.15,,,0.01,Weather View 32 v70,2013-07-02 04:10:00,
2013-07-02 00:15:00,74.0,46.0,29.59,WSW,247,12.0,37.0,37,0.15,,,0.01,Weather View 32 v70,2013-07-02 04:15:00,
2013-07-02 00:20:00,74.0,47.4,29.59,WSW,247,16.0,37.0,39,0.15,,,0.01,Weather View 32 v70,2013-07-02 04:20:00,
2013-07-02 00:27:00,74.0,46.0,29.59,WSW,247,15.0,37.0,37,0.15,,,0.01,Weather View 32 v70,2013-07-02 04:27:00,
2013-07-02 00:35:00,75.0,49.6,29.59,WSW,247,15.0,37.0,41,0.15,,,0.01,Weather View 32 v70,2013-07-02 04:35:00,
2013-07-02 00:40:00,75.0,50.9,29.59,SSE,157,14.0,37.0,43,0.15,,,0.01,Weather View 32 v70,2013-07-02 04:40:00,
2013-07-02 00:45:00,75.0,52.2,29.59,WSW,247,22.0,37.0,45,0.15,,,0.01,Weather View 32 v70,2013-07-02 04:45:00,
2013-07-02 00:50:00,75.0,52.8,29.59,WSW,247,17.0,37.0,46,0.15,,,0.01,Weather View 32 v70,2013-07-02 04:50:00,
2013-07-02 00:55:00,75.0,52.8,29.59,WSW,247,13.0,37.0,46,0.06,,,0.01,Weather View 32 v70,2013-07-02 04:55:00,
2013-07-02 01:00:00,75.0,52.8,29.59,WSW,247,16.0,37.0,46,0.01,,,0.01,Weather View 32 v70,2013-07-02 05:00:00,
2013-07-02 01:05:00,75.0,53.3,29.58,SSE,157,19.0,29.0,47,0.00,,,0.01,Weather View 32 v70,2013-07-02 05:05:00,
2013-07-02 01:10:00,75.0,53.9,29.58,WSW,247,17.0,29.0,48,0.00,,,0.01,Weather View 32 v70,2013-07-02 05:10:00,
2013-07-02 01:15:00,75.0,53.9,29.61,WSW,247,17.0,29.0,48,0.00,,,0.01,Weather View 32 v70,2013-07-02 05:15:00,
2013-07-02 01:20:00,75.0,54.5,29.61,WSW,247,19.0,29.0,49,0.00,,,0.01,Weather View 32 v70,2013-07-02 05:20:00,
2013-07-02 01:27:00,75.0,54.5,29.59,WSW,247,21.0,29.0,49,0.00,,,0.01,Weather View 32 v70,2013-07-02 05:27:00,
2013-07-02 01:35:00,75.0,55.0,29.59,WSW,247,13.0,29.0,50,0.00,,,0.01,Weather View 32 v70,2013-07-02 05:35:00,
2013-07-02 01:40:00,75.0,55.6,29.59,WSW,247,13.0,29.0,51,0.00,,,0.01,Weather View 32 v70,2013-07-02 05:40:00,
2013-07-02 01:45:00,75.0,55.6,29.60,WSW,247,13.0,25.0,51,0.00,,,0.01,Weather View 32 v70,2013-07-02 05:45:00,
2013-07-02 01:50:00,75.0,55.6,29.60,WSW,247,14.0,25.0,51,0.00,,,0.01,Weather View 32 v70,2013-07-02 05:50:00,
2013-07-02 01:55:00,75.0,55.0,29.61,WSW,247,13.0,25.0,50,0.00,,,0.01,Weather View 32 v70,2013-07-02 05:55:00,
2013-07-02 02:05:00,76.0,56.0,29.60,WSW,247,22.0,25.0,50,0.00,,,0.01,Weather View 32 v70,2013-07-02 06:05:00,
2013-07-02 02:10:00,76.0,56.0,29.60,WSW,247,15.0,28.0,50,0.00,,,0.01,Weather View 32 v70,2013-07-02 06:10:00,
2013-07-02 02:15:00,76.0,56.0,29.58,WSW,247,19.0,30.0,50,0.00,,,0.01,Weather View 32 v70,2013-07-02 06:15:00,
2013-07-02 02:20:00,76.0,55.4,29.58,WSW,247,18.0,30.0,49,0.00,,,0.01,Weather View 32 v70,2013-07-02 06:20:00,
2013-07-02 02:25:00,76.0,55.4,29.59,WSW,247,20.0,30.0,49,0.00,,,0.01,Weather View 32 v70,2013-07-02 06:25:00,
2013-07-02 02:35:00,75.0,54.5,29.60,SSE,157,13.0,30.0,49,0.00,,,0.01,Weather View 32 v70,2013-07-02 06:35:00,
2013-07-02 02:40:00,75.0,54.5,29.60,WSW,247,18.0,30.0,49,0.00,,,0.01,Weather View 32 v70,2013-07-02 06:40:00,
2013-07-02 02:45:00,75.0,53.9,29.59,WSW,247,12.0,30.0,48,0.00,,,0.01,Weather View 32 v70,2013-07-02 06:45:00,
2013-07-02 02:50:00,75.0,53.9,29.59,WSW,247,10.0,30.0,48,0.00,,,0.01,Weather View 32 v70,2013-07-02 06:50:00,
2013-07-02 02:55:00,75.0,53.9,29.59,WSW,247,13.0,30.0,48,0.00,,,0.01,Weather View 32 v70,2013-07-02 06:55:00,
2013-07-02 03:00:00,75.0,53.9,29.59,WSW,247,16.0,30.0,48,0.00,,,0.01,Weather View 32 v70,2013-07-02 07:00:00,
2013-07-02 03:05:00,75.0,53.9,29.59,WSW,247,9.0,30.0,48,0.00,,,0.01,Weather View 32 v70,2013-07-02 07:05:00,
2013-07-02 03:10:00,75.0,53.9,29.59,WSW,247,7.0,30.0,48,0.00,,,0.01,Weather View 32 v70,2013-07-02 07:10:00,
2013-07-02 03:15:00,75.0,53.3,29.61,WSW,247,12.0,25.0,47,0.01,,,0.02,Weather View 32 v70,2013-07-02 07:15:00,
2013-07-02 03:20:00,75.0,52.8,29.61,WSW,247,7.0,23.0,46,0.01,,,0.02,Weather View 32 v70,2013-07-02 07:20:00,
2013-07-02 03:25:00,75.0,52.2,29.60,SSE,157,20.0,25.0,45,0.01,,,0.02,Weather View 32 v70,2013-07-02 07:25:00,
2013-07-02 03:35:00,75.0,52.2,29.58,WSW,247,17.0,33.0,45,0.01,,,0.02,Weather View 32 v70,2013-07-02 07:35:00,
2013-07-02 03:45:00,75.0,53.3,29.59,SSE,157,17.0,33.0,47,0.01,,,0.02,Weather View 32 v70,2013-07-02 07:45:00,
2013-07-02 03:50:00,75.0,55.0,29.59,SSE,157,19.0,33.0,50,0.01,,,0.02,Weather View 32 v70,2013-07-02 07:50:00,
2013-07-02 03:55:00,75.0,55.0,29.60,SSE,157,16.0,33.0,50,0.01,,,0.02,Weather View 32 v70,2013-07-02 07:55:00,
2013-07-02 04:00:00,74.0,54.1,29.60,SSE,157,18.0,33.0,50,0.01,,,0.02,Weather View 32 v70,2013-07-02 08:00:00,
2013-07-02 04:05:00,74.0,54.1,29.59,SSE,157,17.0,33.0,50,0.01,,,0.02,Weather View 32 v70,2013-07-02 08:05:00,
2013-07-02 04:10:00,74.0,54.7,29.59,SSE,157,15.0,33.0,51,0.01,,,0.02,Weather View 32 v70,2013-07-02 08:10:00,
2013-07-02 04:15:00,75.0,55.0,29.59,SSE,157,18.0,33.0,50,0.00,,,0.02,Weather View 32 v70,2013-07-02 08:15:00,
2013-07-02 04:20:00,75.0,55.6,29.59,SSE,157,22.0,33.0,51,0.00,,,0.02,Weather View 32 v70,2013-07-02 08:20:00,
2013-07-02 04:25:00,75.0,56.1,29.60,SSE,157,15.0,33.0,52,0.00,,,0.02,Weather View 32 v70,2013-07-02 08:25:00,
2013-07-02 04:35:00,75.0,56.7,29.59,SSE,157,15.0,32.0,53,0.00,,,0.02,Weather View 32 v70,2013-07-02 08:35:00,
2013-07-02 04:45:00,76.0,58.1,29.58,SSE,157,11.0,26.0,54,0.00,,,0.02,Weather View 32 v70,2013-07-02 08:45:00,
2013-07-02 04:50:00,76.0,58.1,29.58,SSE,157,17.0,26.0,54,0.00,,,0.02,Weather View 32 v70,2013-07-02 08:50:00,
2013-07-02 04:55:00,76.0,58.6,29.60,SSE,157,14.0,26.0,55,0.00,,,0.02,Weather View 32 v70,2013-07-02 08:55:00,
2013-07-02 05:00:00,76.0,59.1,29.60,SSE,157,16.0,25.0,56,0.00,,,0.02,Weather View 32 v70,2013-07-02 09:00:00,
2013-07-02 05:05:00,76.0,59.1,29.60,SSE,157,18.0,25.0,56,0.00,,,0.02,Weather View 32 v70,2013-07-02 09:05:00,
2013-07-02 05:15:00,76.0,59.1,29.59,SSE,157,7.0,23.0,56,0.00,,,0.02,Weather View 32 v70,2013-07-02 09:15:00,
2013-07-02 05:20:00,76.0,59.1,29.59,SSE,157,13.0,23.0,56,0.00,,,0.02,Weather View 32 v70,2013-07-02 09:20:00,
2013-07-02 05:25:00,76.0,58.6,29.61,SSE,157,10.0,22.0,55,0.00,,,0.02,Weather View 32 v70,2013-07-02 09:25:00,
2013-07-02 05:30:00,76.0,58.6,29.61,SSE,157,6.0,22.0,55,0.00,,,0.02,Weather View 32 v70,2013-07-02 09:30:00,
2013-07-02 05:35:00,76.0,58.6,29.60,SSE,157,9.0,22.0,55,0.00,,,0.02,Weather View 32 v70,2013-07-02 09:35:00,
2013-07-02 05:40:00,76.0,59.1,29.60,SSE,157,7.0,22.0,56,0.00,,,0.02,Weather View 32 v70,2013-07-02 09:40:00,
2013-07-02 05:45:00,76.0,58.6,29.63,SSE,157,13.0,22.0,55,0.00,,,0.02,Weather View 32 v70,2013-07-02 09:45:00,
2013-07-02 05:55:00,76.0,58.6,29.61,SSE,157,16.0,22.0,55,0.00,,,0.02,Weather View 32 v70,2013-07-02 09:55:00,
2013-07-02 06:00:00,76.0,58.6,29.61,SSE,157,12.0,21.0,55,0.00,,,0.02,Weather View 32 v70,2013-07-02 10:00:00,
2013-07-02 06:05:00,76.0,57.6,29.63,SSE,157,11.0,21.0,53,0.00,,,0.02,Weather View 32 v70,2013-07-02 10:05:00,
2013-07-02 06:10:00,76.0,57.6,29.63,SSE,157,11.0,20.0,53,0.00,,,0.02,Weather View 32 v70,2013-07-02 10:10:00,
2013-07-02 06:15:00,76.0,57.6,29.62,SSE,157,11.0,20.0,53,0.00,,,0.02,Weather View 32 v70,2013-07-02 10:15:00,
2013-07-02 06:20:00,76.0,57.6,29.62,SSE,157,12.0,20.0,53,0.00,,,0.02,Weather View 32 v70,2013-07-02 10:20:00,
2013-07-02 06:25:00,76.0,57.0,29.63,SSE,157,10.0,20.0,52,0.00,,,0.02,Weather View 32 v70,2013-07-02 10:25:00,
2013-07-02 06:30:00,76.0,57.6,29.63,SSE,157,14.0,20.0,53,0.00,,,0.02,Weather View 32 v70,2013-07-02 10:30:00,
2013-07-02 06:40:00,76.0,57.6,29.65,SSE,157,11.0,20.0,53,0.00,,,0.02,Weather View 32 v70,2013-07-02 10:40:00,
2013-07-02 06:45:00,76.0,57.0,29.63,SSE,157,6.0,20.0,52,0.00,,,0.02,Weather View 32 v70,2013-07-02 10:45:00,
2013-07-02 06:50:00,76.0,57.0,29.63,SSE,157,10.0,20.0,52,0.00,,,0.02,Weather View 32 v70,2013-07-02 10:50:00,
2013-07-02 06:55:00,76.0,56.5,29.63,SSE,157,7.0,20.0,51,0.00,,,0.02,Weather View 32 v70,2013-07-02 10:55:00,
2013-07-02 07:00:00,76.0,56.5,29.63,SSE,157,10.0,20.0,51,0.00,,,0.02,Weather View 32 v70,2013-07-02 11:00:00,
2013-07-02 07:05:00,76.0,56.0,29.66,SSE,157,9.0,20.0,50,0.00,,,0.02,Weather View 32 v70,2013-07-02 11:05:00,
2013-07-02 07:10:00,76.0,56.5,29.66,SSE,157,7.0,20.0,51,0.00,,,0.02,Weather View 32 v70,2013-07-02 11:10:00,
2013-07-02 07:20:00,76.0,56.0,29.64,SSE,157,9.0,18.0,50,0.00,,,0.02,Weather View 32 v70,2013-07-02 11:20:00,
2013-07-02 07:25:00,76.0,55.4,29.65,SSE,157,8.0,18.0,49,0.00,,,0.02,Weather View 32 v70,2013-07-02 11:25:00,
2013-07-02 07:30:00,76.0,56.0,29.65,SSE,157,9.0,17.0,50,0.00,,,0.02,Weather View 32 v70,2013-07-02 11:30:00,
2013-07-02 07:35:00,76.0,54.8,29.64,SSE,157,9.0,17.0,48,0.00,,,0.02,Weather View 32 v70,2013-07-02 11:35:00,
2013-07-02 07:40:00,77.0,56.9,29.64,SSE,157,11.0,17.0,50,0.00,,,0.02,Weather View 32 v70,2013-07-02 11:40:00,
2013-07-02 07:45:00,77.0,55.7,29.63,SSE,157,10.0,16.0,48,0.00,,,0.02,Weather View 32 v70,2013-07-02 11:45:00,
2013-07-02 07:50:00,77.0,56.3,29.63,SSE,157,10.0,15.0,49,0.00,,,0.02,Weather View 32 v70,2013-07-02 11:50:00,
2013-07-02 08:00:00,77.0,56.3,29.65,SSE,157,9.0,15.0,49,0.00,,,0.02,Weather View 32 v70,2013-07-02 12:00:00,
2013-07-02 08:05:00,77.0,55.7,29.65,SSE,157,7.0,15.0,48,0.00,,,0.02,Weather View 32 v70,2013-07-02 12:05:00,
2013-07-02 08:10:00,77.0,55.7,29.65,SSE,157,7.0,15.0,48,0.00,,,0.02,Weather View 32 v70,2013-07-02 12:10:00,
2013-07-02 08:15:00,77.0,55.2,29.67,SSE,157,8.0,15.0,47,0.00,,,0.02,Weather View 32 v70,2013-07-02 12:15:00,
2013-07-02 08:20:00,77.0,55.7,29.67,SSE,157,6.0,15.0,48,0.00,,,0.02,Weather View 32 v70,2013-07-02 12:20:00,
2013-07-02 08:25:00,77.0,55.2,29.67,SSE,157,8.0,15.0,47,0.00,,,0.02,Weather View 32 v70,2013-07-02 12:25:00,
2013-07-02 08:31:00,77.0,55.7,29.67,SSE,157,6.0,15.0,48,0.00,,,0.02,Weather View 32 v70,2013-07-02 12:31:00,
2013-07-02 08:40:00,78.0,57.2,29.67,SSE,157,8.0,13.0,49,0.00,,,0.02,Weather View 32 v70,2013-07-02 12:40:00,
2013-07-02 08:45:00,78.0,57.2,29.65,SSE,157,7.0,13.0,49,0.00,,,0.02,Weather View 32 v70,2013-07-02 12:45:00,
2013-07-02 08:50:00,78.0,57.8,29.65,SSE,157,9.0,13.0,50,0.00,,,0.02,Weather View 32 v70,2013-07-02 12:50:00,
2013-07-02 08:55:00,78.0,56.7,29.67,SSE,157,6.0,13.0,48,0.00,,,0.02,Weather View 32 v70,2013-07-02 12:55:00,
2013-07-02 09:00:00,78.0,57.8,29.67,SSE,157,8.0,13.0,50,0.00,,,0.02,Weather View 32 v70,2013-07-02 13:00:00,
2013-07-02 09:05:00,79.0,58.7,29.65,SSE,157,4.0,13.0,50,0.00,,,0.02,Weather View 32 v70,2013-07-02 13:05:00,
2013-07-02 09:10:00,79.0,59.3,29.65,SSE,157,7.0,13.0,51,0.00,,,0.02,Weather View 32 v70,2013-07-02 13:10:00,
2013-07-02 09:20:00,79.0,59.3,29.67,SSE,157,8.0,13.0,51,0.00,,,0.02,Weather View 32 v70,2013-07-02 13:20:00,
2013-07-02 09:25:00,79.0,59.3,29.65,SSE,157,2.0,13.0,51,0.00,,,0.02,Weather View 32 v70,2013-07-02 13:25:00,
2013-07-02 09:30:00,80.0,61.8,29.65,SSE,157,9.0,13.0,54,0.00,,,0.02,Weather View 32 v70,2013-07-02 13:30:00,
2013-07-02 09:35:00,79.0,59.8,29.67,SSE,157,7.0,13.0,52,0.00,,,0.02,Weather View 32 v70,2013-07-02 13:35:00,
2013-07-02 09:40:00,79.0,59.3,29.67,SSE,157,12.0,13.0,51,0.00,,,0.02,Weather View 32 v70,2013-07-02 13:40:00,
2013-07-02 09:45:00,79.0,59.3,29.65,SSE,157,8.0,13.0,51,0.00,,,0.02,Weather View 32 v70,2013-07-02 13:45:00,
2013-07-02 09:50:00,79.0,59.3,29.65,SSE,157,12.0,13.0,51,0.00,,,0.02,Weather View 32 v70,2013-07-02 13:50:00,
2013-07-02 09:55:00,79.0,58.7,29.65,SSE,157,5.0,13.0,50,0.00,,,0.02,Weather View 32 v70,2013-07-02 13:55:00,
2013-07-02 10:05:00,79.0,58.7,29.65,SSE,157,6.0,13.0,50,0.00,,,0.02,Weather View 32 v70,2013-07-02 14:05:00,
2013-07-02 10:10:00,79.0,59.3,29.65,SSE,157,9.0,13.0,51,0.00,,,0.02,Weather View 32 v70,2013-07-02 14:10:00,
2013-07-02 10:15:00,79.0,58.7,29.65,SSE,157,7.0,13.0,50,0.00,,,0.02,Weather View 32 v70,2013-07-02 14:15:00,
2013-07-02 10:20:00,79.0,59.3,29.65,SSE,157,6.0,14.0,51,0.00,,,0.02,Weather View 32 v70,2013-07-02 14:20:00,
2013-07-02 10:25:00,79.0,58.7,29.65,SSE,157,7.0,15.0,50,0.00,,,0.02,Weather View 32 v70,2013-07-02 14:25:00,
2013-07-02 10:30:00,79.0,59.3,29.65,SSE,157,7.0,15.0,51,0.00,,,0.02,Weather View 32 v70,2013-07-02 14:30:00,
2013-07-02 10:35:00,79.0,59.3,29.67,SSE,157,7.0,15.0,51,0.00,,,0.02,Weather View 32 v70,2013-07-02 14:35:00,
2013-07-02 10:40:00,80.0,60.7,29.67,SSE,157,12.0,15.0,52,0.00,,,0.02,Weather View 32 v70,2013-07-02 14:40:00,
2013-07-02 10:45:00,80.0,60.7,29.67,SSE,157,8.0,15.0,52,0.00,,,0.02,Weather View 32 v70,2013-07-02 14:45:00,
2013-07-02 10:55:00,79.0,59.3,29.68,SSE,157,8.0,15.0,51,0.00,,,0.02,Weather View 32 v70,2013-07-02 14:55:00,
2013-07-02 11:00:00,79.0,59.3,29.68,SSE,157,12.0,16.0,51,0.00,,,0.02,Weather View 32 v70,2013-07-02 15:00:00,
2013-07-02 11:05:00,80.0,60.7,29.68,SSE,157,12.0,17.0,52,0.00,,,0.02,Weather View 32 v70,2013-07-02 15:05:00,
2013-07-02 11:10:00,80.0,61.3,29.68,SSE,157,10.0,17.0,53,0.00,,,0.02,Weather View 32 v70,2013-07-02 15:10:00,
2013-07-02 11:15:00,80.0,60.7,29.66,SSE,157,12.0,17.0,52,0.00,,,0.02,Weather View 32 v70,2013-07-02 15:15:00,
2013-07-02 11:20:00,80.0,60.7,29.66,SSE,157,13.0,17.0,52,0.00,,,0.02,Weather View 32 v70,2013-07-02 15:20:00,
2013-07-02 11:25:00,80.0,61.3,29.68,SSE,157,11.0,17.0,53,0.00,,,0.02,Weather View 32 v70,2013-07-02 15:25:00,
2013-07-02 11:30:00,80.0,61.8,29.68,SSE,157,6.0,17.0,54,0.00,,,0.02,Weather View 32 v70,2013-07-02 15:30:00,
2013-07-02 11:35:00,80.0,61.3,29.68,SSE,157,12.0,17.0,53,0.00,,,0.02,Weather View 32 v70,2013-07-02 15:35:00,
2013-07-02 11:45:00,80.0,60.7,29.68,SSE,157,12.0,17.0,52,0.00,,,0.02,Weather View 32 v70,2013-07-02 15:45:00,
2013-07-02 11:50:00,80.0,61.3,29.68,SSE,157,9.0,17.0,53,0.00,,,0.02,Weather View 32 v70,2013-07-02 15:50:00,
2013-07-02 11:55:00,80.0,60.7,29.67,SSE,157,12.0,17.0,52,0.00,,,0.02,Weather View 32 v70,2013-07-02 15:55:00,
2013-07-02 12:00:00,80.0,60.7,29.67,SSE,157,16.0,17.0,52,0.00,,,0.02,Weather View 32 v70,2013-07-02 16:00:00,
2013-07-02 12:05:00,81.0,61.7,29.67,SSE,157,10.0,17.0,52,0.00,,,0.02,Weather View 32 v70,2013-07-02 16:05:00,
2013-07-02 12:10:00,81.0,62.2,29.67,SSE,157,13.0,18.0,53,0.00,,,0.02,Weather View 32 v70,2013-07-02 16:10:00,
2013-07-02 12:15:00,80.0,60.7,29.65,SSE,157,9.0,18.0,52,0.00,,,0.02,Weather View 32 v70,2013-07-02 16:15:00,
2013-07-02 12:25:00,80.0,60.2,29.68,SSE,157,13.0,22.0,51,0.00,,,0.02,Weather View 32 v70,2013-07-02 16:25:00,
2013-07-02 12:30:00,80.0,60.7,29.68,SSE,157,11.0,22.0,52,0.00,,,0.02,Weather View 32 v70,2013-07-02 16:30:00,
2013-07-02 12:35:00,80.0,60.7,29.69,SSE,157,16.0,22.0,52,0.00,,,0.02,Weather View 32 v70,2013-07-02 16:35:00,
2013-07-02 12:40:00,80.0,61.3,29.69,SSE,157,9.0,22.0,53,0.00,,,0.02,Weather View 32 v70,2013-07-02 16:40:00,
2013-07-02 12:45:00,81.0,62.2,29.69,SSE,157,16.0,22.0,53,0.00,,,0.02,Weather View 32 v70,2013-07-02 16:45:00,
2013-07-02 12:50:00,81.0,62.7,29.69,SSE,157,16.0,22.0,54,0.00,,,0.02,Weather View 32 v70,2013-07-02 16:50:00,
2013-07-02 12:55:00,81.0,62.7,29.66,SSE,157,7.0,22.0,54,0.00,,,0.02,Weather View 32 v70,2013-07-02 16:55:00,
2013-07-02 13:00:00,81.0,62.7,29.66,SSE,157,17.0,22.0,54,0.00,,,0.02,Weather View 32 v70,2013-07-02 17:00:00,
2013-07-02 13:10:00,81.0,62.7,29.69,SSE,157,16.0,22.0,54,0.00,,,0.02,Weather View 32 v70,2013-07-02 17:10:00,
2013-07-02 13:15:00,81.0,62.2,29.67,SSE,157,17.0,22.0,53,0.00,,,0.02,Weather View 32 v70,2013-07-02 17:15:00,
2013-07-02 13:20:00,80.0,61.8,29.67,SSE,157,22.0,22.0,54,0.00,,,0.02,Weather View 32 v70,2013-07-02 17:20:00,
2013-07-02 13:25:00,80.0,61.3,29.66,SSE,157,9.0,22.0,53,0.00,,,0.02,Weather View 32 v70,2013-07-02 17:25:00,
2013-07-02 13:30:00,80.0,61.3,29.66,SSE,157,17.0,22.0,53,0.00,,,0.02,Weather View 32 v70,2013-07-02 17:30:00,
2013-07-02 13:35:00,81.0,62.7,29.67,SSE,157,10.0,22.0,54,0.00,,,0.02,Weather View 32 v70,2013-07-02 17:35:00,
2013-07-02 13:40:00,81.0,62.7,29.67,SSE,157,12.0,22.0,54,0.00,,,0.02,Weather View 32 v70,2013-07-02 17:40:00,
2013-07-02 13:50:00,81.0,63.2,29.69,SSE,157,7.0,22.0,55,0.00,,,0.02,Weather View 32 v70,2013-07-02 17:50:00,
2013-07-02 13:55:00,81.0,62.7,29.67,SSE,157,12.0,22.0,54,0.00,,,0.02,Weather View 32 v70,2013-07-02 17:55:00,
2013-07-02 14:00:00,81.0,62.7,29.67,SSE,157,13.0,22.0,54,0.00,,,0.02,Weather View 32 v70,2013-07-02 18:00:00,
2013-07-02 14:05:00,81.0,62.2,29.68,SSE,157,7.0,22.0,53,0.00,,,0.02,Weather View 32 v70,2013-07-02 18:05:00,
2013-07-02 14:10:00,81.0,62.7,29.68,SSE,157,12.0,22.0,54,0.00,,,0.02,Weather View 32 v70,2013-07-02 18:10:00,
2013-07-02 14:15:00,81.0,62.7,29.68,SSE,157,16.0,22.0,54,0.00,,,0.02,Weather View 32 v70,2013-07-02 18:15:00,
2013-07-02 14:20:00,81.0,62.7,29.68,SSE,157,11.0,22.0,54,0.00,,,0.02,Weather View 32 v70,2013-07-02 18:20:00,
2013-07-02 14:25:00,81.0,62.7,29.67,SSE,157,13.0,20.0,54,0.00,,,0.02,Weather View 32 v70,2013-07-02 18:25:00,
2013-07-02 14:30:00,81.0,62.7,29.67,SSE,157,12.0,20.0,54,0.00,,,0.02,Weather View 32 v70,2013-07-02 18:30:00,
2013-07-02 14:40:00,81.0,62.7,29.67,SSE,157,15.0,20.0,54,0.00,,,0.02,Weather View 32 v70,2013-07-02 18:40:00,
2013-07-02 14:45:00,81.0,62.7,29.67,SSE,157,16.0,20.0,54,0.00,,,0.02,Weather View 32 v70,2013-07-02 18:45:00,
2013-07-02 14:50:00,81.0,63.2,29.67,SSE,157,15.0,20.0,55,0.00,,,0.02,Weather View 32 v70,2013-07-02 18:50:00,
2013-07-02 14:55:00,81.0,62.7,29.66,SSE,157,7.0,20.0,54,0.00,,,0.02,Weather View 32 v70,2013-07-02 18:55:00,
2013-07-02 15:00:00,81.0,63.2,29.66,SSE,157,10.0,20.0,55,0.00,,,0.02,Weather View 32 v70,2013-07-02 19:00:00,
2013-07-02 15:05:00,82.0,64.2,29.65,SSE,157,16.0,20.0,55,0.00,,,0.02,Weather View 32 v70,2013-07-02 19:05:00,
2013-07-02 15:10:00,81.0,62.7,29.65,SSE,157,10.0,20.0,54,0.00,,,0.02,Weather View 32 v70,2013-07-02 19:10:00,
2013-07-02 15:15:00,81.0,62.7,29.67,SSE,157,11.0,20.0,54,0.00,,,0.02,Weather View 32 v70,2013-07-02 19:15:00,
2013-07-02 15:25:00,81.0,62.2,29.66,SSE,157,10.0,20.0,53,0.00,,,0.02,Weather View 32 v70,2013-07-02 19:25:00,
2013-07-02 15:30:00,82.0,63.7,29.66,SSE,157,9.0,20.0,54,0.00,,,0.02,Weather View 32 v70,2013-07-02 19:30:00,
2013-07-02 15:35:00,82.0,64.2,29.67,SSE,157,15.0,20.0,55,0.00,,,0.02,Weather View 32 v70,2013-07-02 19:35:00,
2013-07-02 15:45:00,81.0,63.8,29.65,SSE,157,11.0,21.0,56,0.00,,,0.02,Weather View 32 v70,2013-07-02 19:45:00,
2013-07-02 15:50:00,81.0,63.2,29.65,SSE,157,12.0,21.0,55,0.00,,,0.02,Weather View 32 v70,2013-07-02 19:50:00,
2013-07-02 16:00:00,81.0,63.2,29.65,SSE,157,10.0,21.0,55,0.00,,,0.02,Weather View 32 v70,2013-07-02 20:00:00,
2013-07-02 16:10:00,81.0,62.7,29.66,SSE,157,12.0,21.0,54,0.00,,,0.02,Weather View 32 v70,2013-07-02 20:10:00,
2013-07-02 16:15:00,81.0,62.2,29.65,SSE,157,15.0,21.0,53,0.00,,,0.02,Weather View 32 v70,2013-07-02 20:15:00,
2013-07-02 16:20:00,81.0,62.7,29.65,SSE,157,13.0,21.0,54,0.00,,,0.02,Weather View 32 v70,2013-07-02 20:20:00,
2013-07-02 16:25:00,81.0,62.2,29.65,SSE,157,12.0,21.0,53,0.00,,,0.02,Weather View 32 v70,2013-07-02 20:25:00,
2013-07-02 16:30:00,81.0,62.2,29.65,SSE,157,12.0,21.0,53,0.00,,,0.02,Weather View 32 v70,2013-07-02 20:30:00,
2013-07-02 16:35:00,81.0,62.2,29.68,SSE,157,6.0,21.0,53,0.00,,,0.02,Weather View 32 v70,2013-07-02 20:35:00,
2013-07-02 16:40:00,81.0,62.7,29.68,SSE,157,9.0,20.0,54,0.00,,,0.02,Weather View 32 v70,2013-07-02 20:40:00,
2013-07-02 16:45:00,80.0,60.7,29.65,SSE,157,6.0,20.0,52,0.00,,,0.02,Weather View 32 v70,2013-07-02 20:45:00,
2013-07-02 16:50:00,80.0,60.7,29.65,SSE,157,7.0,20.0,52,0.00,,,0.02,Weather View 32 v70,2013-07-02 20:50:00,
2013-07-02 17:00:00,80.0,60.7,29.67,SSE,157,14.0,18.0,52,0.00,,,0.02,Weather View 32 v70,2013-07-02 21:00:00,
2013-07-02 17:05:00,79.0,58.7,29.66,SSE,157,11.0,18.0,50,0.00,,,0.02,Weather View 32 v70,2013-07-02 21:05:00,
2013-07-02 17:10:00,79.0,58.7,29.66,SSE,157,15.0,18.0,50,0.00,,,0.02,Weather View 32 v70,2013-07-02 21:10:00,
2013-07-02 17:15:00,79.0,58.7,29.68,SSE,157,8.0,17.0,50,0.00,,,0.02,Weather View 32 v70,2013-07-02 21:15:00,
2013-07-02 17:20:00,79.0,58.7,29.68,SSE,157,15.0,17.0,50,0.00,,,0.02,Weather View 32 v70,2013-07-02 21:20:00,
2013-07-02 17:25:00,80.0,60.2,29.67,SSE,157,15.0,16.0,51,0.00,,,0.02,Weather View 32 v70,2013-07-02 21:25:00,
2013-07-02 17:30:00,80.0,60.7,29.67,SSE,157,9.0,16.0,52,0.00,,,0.02,Weather View 32 v70,2013-07-02 21:30:00,
2013-07-02 17:35:00,80.0,60.2,29.68,SSE,157,8.0,16.0,51,0.00,,,0.02,Weather View 32 v70,2013-07-02 21:35:00,
2013-07-02 17:40:00,80.0,60.2,29.68,SSE,157,7.0,16.0,51,0.00,,,0.02,Weather View 32 v70,2013-07-02 21:40:00,
2013-07-02 17:50:00,80.0,60.2,29.65,SSE,157,10.0,16.0,51,0.00,,,0.02,Weather View 32 v70,2013-07-02 21:50:00,
2013-07-02 17:55:00,80.0,60.2,29.67,SSE,157,9.0,16.0,51,0.00,,,0.02,Weather View 32 v70,2013-07-02 21:55:00,
2013-07-02 18:00:00,80.0,60.2,29.67,SSE,157,11.0,16.0,51,0.00,,,0.02,Weather View 32 v70,2013-07-02 22:00:00,
2013-07-02 18:05:00,80.0,60.2,29.65,SSE,157,10.0,16.0,51,0.00,,,0.02,Weather View 32 v70,2013-07-02 22:05:00,
2013-07-02 18:10:00,80.0,60.2,29.65,SSE,157,9.0,16.0,51,0.00,,,0.02,Weather View 32 v70,2013-07-02 22:10:00,
2013-07-02 18:15:00,79.0,57.6,29.67,SSE,157,12.0,16.0,48,0.00,,,0.02,Weather View 32 v70,2013-07-02 22:15:00,
2013-07-02 18:20:00,79.0,58.1,29.67,SSE,157,7.0,16.0,49,0.00,,,0.02,Weather View 32 v70,2013-07-02 22:20:00,
2013-07-02 18:25:00,79.0,57.6,29.66,SSE,157,9.0,16.0,48,0.00,,,0.02,Weather View 32 v70,2013-07-02 22:25:00,
2013-07-02 18:35:00,80.0,59.6,29.69,SSE,157,12.0,18.0,50,0.00,,,0.02,Weather View 32 v70,2013-07-02 22:35:00,
2013-07-02 18:40:00,80.0,60.2,29.69,SSE,157,10.0,18.0,51,0.00,,,0.02,Weather View 32 v70,2013-07-02 22:40:00,
2013-07-02 18:45:00,80.0,59.6,29.66,SSE,157,12.0,18.0,50,0.00,,,0.02,Weather View 32 v70,2013-07-02 22:45:00,
2013-07-02 18:50:00,80.0,60.2,29.66,SSE,157,8.0,18.0,51,0.00,,,0.02,Weather View 32 v70,2013-07-02 22:50:00,
2013-07-02 18:55:00,80.0,59.6,29.67,SSE,157,12.0,18.0,50,0.00,,,0.02,Weather View 32 v70,2013-07-02 22:55:00,
2013-07-02 19:00:00,80.0,60.2,29.67,SSE,157,12.0,18.0,51,0.00,,,0.02,Weather View 32 v70,2013-07-02 23:00:00,
2013-07-02 19:05:00,80.0,59.6,29.66,SSE,157,15.0,18.0,50,0.00,,,0.02,Weather View 32 v70,2013-07-02 23:05:00,
2013-07-02 19:10:00,79.0,58.7,29.66,SSE,157,11.0,18.0,50,0.00,,,0.02,Weather View 32 v70,2013-07-02 23:10:00,
2013-07-02 19:15:00,79.0,57.6,29.67,SSE,157,9.0,18.0,48,0.00,,,0.02,Weather View 32 v70,2013-07-02 23:15:00,
2013-07-02 19:25:00,79.0,57.0,29.67,SSE,157,11.0,18.0,47,0.00,,,0.02,Weather View 32 v70,2013-07-02 23:25:00,
2013-07-02 19:30:00,79.0,57.6,29.67,SSE,157,9.0,18.0,48,0.00,,,0.02,Weather View 32 v70,2013-07-02 23:30:00,
2013-07-02 19:35:00,79.0,57.0,29.67,SSE,157,9.0,18.0,47,0.00,,,0.02,Weather View 32 v70,2013-07-02 23:35:00,
2013-07-02 19:40:00,79.0,57.6,29.67,SSE,157,10.0,18.0,48,0.00,,,0.02,Weather View 32 v70,2013-07-02 23:40:00,
2013-07-02 19:45:00,79.0,57.0,29.68,SSE,157,9.0,18.0,47,0.00,,,0.02,Weather View 32 v70,2013-07-02 23:45:00,
2013-07-02 19:50:00,79.0,57.6,29.68,SSE,157,9.0,18.0,48,0.00,,,0.02,Weather View 32 v70,2013-07-02 23:50:00,
2013-07-02 20:00:00,79.0,57.6,29.69,SSE,157,10.0,18.0,48,0.00,,,0.02,Weather View 32 v70,2013-07-03 00:00:00,
2013-07-02 20:05:00,79.0,57.0,29.67,SSE,157,8.0,18.0,47,0.00,,,0.02,Weather View 32 v70,2013-07-03 00:05:00,
2013-07-02 20:10:00,79.0,57.6,29.67,SSE,157,12.0,17.0,48,0.00,,,0.02,Weather View 32 v70,2013-07-03 00:10:00,
2013-07-02 20:15:00,79.0,57.0,29.69,SSE,157,7.0,19.0,47,0.00,,,0.02,Weather View 32 v70,2013-07-03 00:15:00,
2013-07-02 20:20:00,79.0,57.0,29.69,SSE,157,14.0,19.0,47,0.00,,,0.02,Weather View 32 v70,2013-07-03 00:20:00,
2013-07-02 20:25:00,78.0,55.5,29.68,SSE,157,10.0,19.0,46,0.00,,,0.02,Weather View 32 v70,2013-07-03 00:25:00,
2013-07-02 20:30:00,78.0,55.5,29.68,SSE,157,9.0,19.0,46,0.00,,,0.02,Weather View 32 v70,2013-07-03 00:30:00,
2013-07-02 20:35:00,78.0,54.9,29.69,SSE,157,12.0,19.0,45,0.00,,,0.02,Weather View 32 v70,2013-07-03 00:35:00,
2013-07-02 20:40:00,78.0,54.9,29.69,SSE,157,15.0,19.0,45,0.00,,,0.02,Weather View 32 v70,2013-07-03 00:40:00,
2013-07-02 20:45:00,78.0,53.6,29.69,SSE,157,9.0,19.0,43,0.00,,,0.02,Weather View 32 v70,2013-07-03 00:45:00,
2013-07-02 20:50:00,78.0,54.2,29.69,SSE,157,19.0,19.0,44,0.00,,,0.02,Weather View 32 v70,2013-07-03 00:50:00,
2013-07-02 21:00:00,78.0,54.9,29.69,SSE,157,6.0,20.0,45,0.00,,,0.02,Weather View 32 v70,2013-07-03 01:00:00,
2013-07-02 21:05:00,78.0,54.2,29.69,SSE,157,13.0,20.0,44,0.00,,,0.02,Weather View 32 v70,2013-07-03 01:05:00,
2013-07-02 21:10:00,78.0,54.9,29.69,SSE,157,13.0,20.0,45,0.00,,,0.02,Weather View 32 v70,2013-07-03 01:10:00,
2013-07-02 21:15:00,78.0,54.9,29.69,SSE,157,12.0,20.0,45,0.00,,,0.02,Weather View 32 v70,2013-07-03 01:15:00,
2013-07-02 21:20:00,78.0,55.5,29.69,SSE,157,10.0,20.0,46,0.00,,,0.02,Weather View 32 v70,2013-07-03 01:20:00,
2013-07-02 21:25:00,78.0,55.5,29.72,SSE,157,12.0,20.0,46,0.00,,,0.02,Weather View 32 v70,2013-07-03 01:25:00,
2013-07-02 21:30:00,78.0,55.5,29.72,SSE,157,9.0,20.0,46,0.00,,,0.02,Weather View 32 v70,2013-07-03 01:30:00,
2013-07-02 21:35:00,78.0,54.9,29.70,SSE,157,9.0,20.0,45,0.00,,,0.02,Weather View 32 v70,2013-07-03 01:35:00,
2013-07-02 21:40:00,78.0,54.9,29.70,SSE,157,7.0,20.0,45,0.00,,,0.02,Weather View 32 v70,2013-07-03 01:40:00,
2013-07-02 21:50:00,78.0,54.9,29.73,SSE,157,7.0,20.0,45,0.00,,,0.02,Weather View 32 v70,2013-07-03 01:50:00,
2013-07-02 21:55:00,78.0,55.5,29.73,SSE,157,14.0,20.0,46,0.00,,,0.02,Weather View 32 v70,2013-07-03 01:55:00,
2013-07-02 22:05:00,78.0,55.5,29.71,SSE,157,10.0,20.0,46,0.00,,,0.02,Weather View 32 v70,2013-07-03 02:05:00,
2013-07-02 22:15:00,78.0,54.9,29.71,SSE,157,10.0,20.0,45,0.00,,,0.02,Weather View 32 v70,2013-07-03 02:15:00,
2013-07-02 22:20:00,78.0,55.5,29.71,SSE,157,7.0,20.0,46,0.00,,,0.02,Weather View 32 v70,2013-07-03 02:20:00,
2013-07-02 22:30:00,78.0,57.2,29.73,SSE,157,6.0,20.0,49,0.00,,,0.02,Weather View 32 v70,2013-07-03 02:30:00,
2013-07-02 22:39:00,78.0,56.7,29.70,SSE,157,9.0,19.0,48,0.00,,,0.02,Weather View 32 v70,2013-07-03 02:39:00,
2013-07-02 22:40:00,78.0,56.1,29.70,SSE,157,10.0,19.0,47,0.00,,,0.02,Weather View 32 v70,2013-07-03 02:40:00,
2013-07-02 22:45:00,78.0,55.5,29.72,SSE,157,9.0,19.0,46,0.00,,,0.02,Weather View 32 v70,2013-07-03 02:45:00,
2013-07-02 22:50:00,78.0,55.5,29.72,SSE,157,7.0,19.0,46,0.00,,,0.02,Weather View 32 v70,2013-07-03 02:50:00,
2013-07-02 23:05:00,78.0,56.1,29.71,SSE,157,12.0,21.0,47,0.00,,,0.02,Weather View 32 v70,2013-07-03 03:05:00,
2013-07-02 23:10:00,78.0,55.5,29.71,SSE,157,10.0,21.0,46,0.00,,,0.02,Weather View 32 v70,2013-07-03 03:10:00,
2013-07-02 23:15:00,78.0,54.9,29.72,SSE,157,10.0,21.0,45,0.00,,,0.02,Weather View 32 v70,2013-07-03 03:15:00,
2013-07-02 23:20:00,77.0,55.2,29.72,SSE,157,11.0,21.0,47,0.00,,,0.02,Weather View 32 v70,2013-07-03 03:20:00,
2013-07-02 23:25:00,77.0,56.9,29.73,SSE,157,13.0,21.0,50,0.00,,,0.02,Weather View 32 v70,2013-07-03 03:25:00,
2013-07-02 23:35:00,77.0,56.9,29.72,SSE,157,9.0,21.0,50,0.00,,,0.02,Weather View 32 v70,2013-07-03 03:35:00,
2013-07-02 23:39:00,77.0,56.9,29.72,SSE,157,9.0,21.0,50,0.00,,,0.02,Weather View 32 v70,2013-07-03 03:39:00,
2013-07-02 23:45:00,77.0,56.9,29.73,SSE,157,12.0,21.0,50,0.00,,,0.02,Weather View 32 v70,2013-07-03 03:45:00,
2013-07-02 23:50:00,77.0,56.9,29.73,SSE,157,10.0,21.0,50,0.00,,,0.02,Weather View 32 v70,2013-07-03 03:50:00,
2013-07-02 23:55:00,77.0,56.9,29.71,SSE,157,7.0,21.0,50,0.00,,,0.02,Weather View 32 v70,2013-07-03 03:55:00,